Tracking 20942 objects as of 4-Jul-2020
HD Live streaming from Space Station
objects crossing your sky now

FLOCK 4P 10

Track FLOCK 4P 10 now!
10-day predictions
FLOCK 4P 10 is classified as:


NORAD ID: 44808
Int'l Code: 2019-081E
Perigee: 504.3 km
Apogee: 522.6 km
Inclination: 97.5 °
Period: 94.7 minutes
Semi major axis: 6884 km
RCS: Unknown
Launch date: November 27, 2019
Source: United States (US)
Launch site: SRIHARIKOTA (SRI)
aabbcc
Your satellite tracking list
Your tracking list is empty




NASA's NSSDC Master Catalog

Two Line Element Set (TLE):
1 44808U 19081E   20186.42076839  .00000780  00000-0  39567-4 0  9998
2 44808  97.4944 247.2223 0013284 192.3605 167.7306 15.19847968 33441
Source of the keplerian elements: AFSPC